Location: ??????
(33.3472°N, 35.4764°E)
Time: 09:43:46
(UTC+00:00)

IUS-1 SRM-2 - Visible Passes

Search period start: 20 November 2019 00:00
Search period end: 30 November 2019 00:00
Orbit: 260 x 21302 km, 25.8° (Epoch: 18 November)

Date Brightness Start Highest point End Pass type
(mag) Time Alt. Az. Time Alt. Az. Time Alt. Az.
20 Nov 6.6 13:24:59 10° WSW 17:46:34 65° SSW 17:59:22 42° SSE visible
21 Nov 6.7 14:47:30 10° W 18:43:58 52° SW 18:50:57 45° S visible
22 Nov 6.9 16:57:55 10° W 19:38:49 37° SW 19:42:32 36° SW visible
23 Nov 7.3 19:43:38 10° WNW 20:31:57 22° WSW 20:34:09 22° WSW visible
24 Nov 7.6 10:01:09 10° SW 13:54:40 79° S 15:08:56 10° ESE visible
25 Nov 7.3 10:59:21 10° WSW 15:19:33 78° SSW 16:04:04 10° ESE visible
26 Nov 7.0 12:00:52 10° WSW 16:28:46 72° SSW 16:55:58 20° SE visible
27 Nov 6.8 13:08:18 10° WSW 17:30:15 62° SW 17:47:31 29° SSE visible
28 Nov 6.7 14:28:21 10° W 18:27:28 48° SW 18:39:03 33° S visible
29 Nov 7.0 16:27:53 10° W 19:22:00 33° WSW 19:30:34 28° SSW visible
